Weather in Safonovo

Russia / Murmansk Oblast     69°03′22″N   33°17′31″E
В апреле 2022 года жителям России запретили посещать сайт meteo.paraplan.net по решению Генеральной прокуратуры. Аудитория сайта уменьшилась в 10 раз. Владельцы сайта не видят смысла в поддержке погодного сервера в таких условиях. Сайт будет закрыт в октябре.
temp.,
°C
wind,
m/s
gust,
m/s
humid.,
%
clouds,
%
prec.,
mm/h
press.,
hPa
HPBL,
m
30 september, fri
fri3000:000ese226314 0.0 101617
03:00−1ese226854 0.0 101522
06:00−1ese227340 0.0 101427
09:00+1ese266447 0.0 1014308
12:00+4se5666100 0.0 1012670
15:00+4se457476 0.0 1012650
18:00+2ese139583 0.0 1011188
21:00+2ese129395 0.1 1010177
1 october, sat
sat100:00+1sw1199100 0.9 101089
03:00+1sw1299100 2.3 100976
06:000ssw2399100 0.4 1008132
09:00+1s2496100 0.5 1008322
12:00+2s2389100 0.1 1008600
15:00+2ssw1289100 0.2 1008262
18:00+2s2293100 0.0 1008105
21:00+1ssw239796 0.1 1008142
2 october, sun
sun200:00+1ssw2496100 0.0 1008320
03:00+1ssw249597 0.0 1008217
06:00+1ssw2394100 0.0 1008146
09:00+1ssw239298 0.0 1009174
12:00+3sw238054 0.0 1008505
15:00+3sw238290 0.0 1009555
18:00+2s119597 0.0 100945
21:00+2sse229283 0.0 100924
3 october, mon
mon300:00+1s229384 0.0 101029
03:00+2s239199 0.0 101082
06:00+2s2493100 0.0 1010102
09:00+3sse2494100 0.0 1011156
12:00+3s3696100 0.6 1012210
15:00+4s2595100 0.8 1013147
18:00+4s2397100 0.1 101459
21:00+4ssw239698 0.2 101545
4 october, tue
tue400:00+5s3394100 0.0 101671
03:00+4ssw229594 0.0 101633
06:00+4sse229393 0.0 101719
09:00+5sse1190100 0.0 101725
12:00+7e1382100 0.0 1017243
15:00+7ese2583100 0.0 1016366
18:00+5e4984100 0.0 1016306
21:00+4e51090100 0.2 1015546